(136168) = 1999 TZ231 = 2003 UC98

Discovered at Anderson Mesa on 2003-10-19 by LONEOS.

Orbit

Orbit type: Main Belt

Note: WebGL enabled browser required.

epoch2024-03-31.0
epoch JD2460400.5
perihelion date2022-08-08.51858
perihelion JD2459800.01858
argument of perihelion (°)274.59149
ascending node (°)142.28968
inclination (°)6.61643
eccentricity0.1266213
perihelion distance (AU)2.1056865
Tisserand w.r.t. Jupiter3.5
ΔV w.r.t. Earth (km/sec)9.3
semimajor axis (AU)2.4109662
mean anomaly (°)158.09449
mean daily motion (°/day)0.26327960
aphelion distance (AU)2.716
period (years)3.74
P-vector [x]0.54231653
P-vector [y]0.80929404
P-vector [z]0.22568992
Q-vector [x]-0.83721303
Q-vector [y]0.49800943
Q-vector [z]0.22596669
absolute magnitude16.51
phase slope0.15
uncertainty0
referenceMPEC 2024-F14
observations used1122
oppositions16
arc length (days)8930
first opposition used1999
last opposition used2024
residual rms (arc-secs)0.61
perturbers coarse indicatorM-v
perturbers precise indicator003Ek
first observation date used1999-10-05.0
last observation date used2024-03-17.0
computer nameMPCLINUX
JD of orbit computation2456966.760909
perihelion JD uncertainty (days)5.3672E-05
argument of perihelion uncertainty (°)3.0294E-05
ascending node uncertainty (°)2.6424E-05
inclination uncertainty (°)3.4302E-06
eccentricity uncertainty 2.7486E-08
perihelion distance uncertainty (AU)6.8463E-08
Minimum Orbit Intersection Distances (in AU)
for orbit epoch: 2460400.5, reference: E2024-F14
Mercury1.79488
Venus1.38836
Earth1.13016
Mars0.6075
Jupiter2.60088
Saturn6.85555
Uranus15.9092
Neptune27.6615

Observations

1138 total observations over interval: 1999 10 05.28625 – 2024 03 17.641050
These data are available for download (format description).

Date (UT) J2000 RA J2000 Dec Magn Location Ref
1999 10 05.28625 00 39 22.85 -05 23 26.5 19.0 R 703 – Catalina Sky Survey MPS 15417
1999 10 05.29838 00 39 22.20 -05 23 31.6 18.2 R 703 – Catalina Sky Survey MPS 15417
1999 10 05.31059 00 39 21.57 -05 23 38.5 18.5 R 703 – Catalina Sky Survey MPS 15417
1999 10 05.32273 00 39 20.94 -05 23 44.3 18.9 R 703 – Catalina Sky Survey MPS 15417
1999 10 08.25202 00 36 54.55 -05 46 40.2 19.0   704 – Lincoln Laboratory ETS, New Mexico MPS 15417
1999 10 08.26747 00 36 53.71 -05 46 47.1 19.1   704 – Lincoln Laboratory ETS, New Mexico MPS 15417
1999 10 08.28294 00 36 52.93 -05 46 53.7 18.9   704 – Lincoln Laboratory ETS, New Mexico MPS 15417
1999 10 08.29850 00 36 52.17 -05 47 00.2 19.1   704 – Lincoln Laboratory ETS, New Mexico MPS 15417
1999 10 08.31392 00 36 51.31 -05 47 07.5 19.2   704 – Lincoln Laboratory ETS, New Mexico MPS 15417
2001 02 20.446410 11 50 05.282 +05 46 19.47 20.08 V 645 – Apache Point-Sloan Digital Sky Survey MPS 131673
2001 02 20.449882 11 50 05.135 +05 46 21.16 20.96   645 – Apache Point-Sloan Digital Sky Survey MPS 131673
2003 10 19.38274 04 05 56.61 +09 19 00.9 18.7 R 699 – Lowell Observatory-LONEOS MPS 89702
2003 10 19.39598 04 05 56.34 +09 18 57.5   699 – Lowell Observatory-LONEOS MPS 89702
2003 10 19.40930 04 05 56.02 +09 18 53.6   699 – Lowell Observatory-LONEOS MPS 89702
2003 10 19.42245 04 05 55.79 +09 18 49.2   699 – Lowell Observatory-LONEOS MPS 89702
2003 10 21.34752 04 05 14.74 +09 08 58.0 18.9   704 – Lincoln Laboratory ETS, New Mexico MPS 89702
2003 10 21.35923 04 05 14.37 +09 08 55.3 19.6   704 – Lincoln Laboratory ETS, New Mexico MPS 89702
2003 10 21.37106 04 05 14.07 +09 08 51.0 19.8   704 – Lincoln Laboratory ETS, New Mexico MPS 89702
2003 10 21.38299 04 05 13.84 +09 08 47.9 19.8   704 – Lincoln Laboratory ETS, New Mexico MPS 89702
2003 10 21.39469 04 05 13.47 +09 08 43.2 19.4   704 – Lincoln Laboratory ETS, New Mexico MPS 89702
2003 10 21.48870 04 05 11.15 +09 08 14.8 19.1   644 – Palomar Mountain/NEAT MPS 90615
2003 10 21.49995 04 05 10.86 +09 08 11.2 18.8   644 – Palomar Mountain/NEAT MPS 90615
2003 10 21.51133 04 05 10.56 +09 08 07.7 18.8   644 – Palomar Mountain/NEAT MPS 90615
2003 10 29.53967 04 00 59.19 +08 27 01.7 20.8   608 – Haleakala-AMOS MPS 90615
2003 10 29.55061 04 00 58.73 +08 26 58.2 20.7   608 – Haleakala-AMOS MPS 90615
2003 10 29.56135 04 00 58.28 +08 26 55.5 20.2   608 – Haleakala-AMOS MPS 90615
2003 11 01.31282 03 59 06.24 +08 13 12.4 18.6   704 – Lincoln Laboratory ETS, New Mexico MPS 90615
2003 11 01.32478 03 59 05.73 +08 13 08.7 18.7   704 – Lincoln Laboratory ETS, New Mexico MPS 90615
2003 11 01.33678 03 59 05.17 +08 13 05.2 18.2   704 – Lincoln Laboratory ETS, New Mexico MPS 90615
2003 11 01.34888 03 59 04.59 +08 13 01.7 18.6   704 – Lincoln Laboratory ETS, New Mexico MPS 90615
2003 11 01.36087 03 59 04.06 +08 12 57.6 18.9   704 – Lincoln Laboratory ETS, New Mexico MPS 90615
2003 11 18.35658 03 44 13.25 +07 03 24.7 18.7 V 691 – Steward Observatory, Kitt Peak-Spacewatch MPS 91061
2003 11 18.38467 03 44 11.57 +07 03 20.7 18.5 V 691 – Steward Observatory, Kitt Peak-Spacewatch MPS 91061
2003 11 18.41289 03 44 09.85 +07 03 14.5 18.8 V 691 – Steward Observatory, Kitt Peak-Spacewatch MPS 91061
2003 11 23.29826 03 39 27.32 +06 50 48.5 18.4 R 699 – Lowell Observatory-LONEOS MPS 92770
2003 11 23.31148 03 39 26.55 +06 50 47.6   699 – Lowell Observatory-LONEOS MPS 92770
2003 11 23.32471 03 39 25.71 +06 50 45.1   699 – Lowell Observatory-LONEOS MPS 92770
2003 11 23.33790 03 39 24.92 +06 50 43.9   699 – Lowell Observatory-LONEOS MPS 92770
2003 11 30.19111 03 33 04.69 +06 41 07.9 15.9 V 703 – Catalina Sky Survey MPS 92770
2003 11 30.23024 03 33 02.73 +06 41 04.0 18.7 V 703 – Catalina Sky Survey MPS 92770
2003 11 30.24735 03 33 01.75 +06 41 04.2 18.5 V 703 – Catalina Sky Survey MPS 92770
2003 11 30.26441 03 33 00.81 +06 41 02.9 18.9 V 703 – Catalina Sky Survey MPS 92770
2003 12 11.23799 03 24 35.29 +06 46 24.0 19.1 V 703 – Catalina Sky Survey MPS 93410
2003 12 11.25407 03 24 34.66 +06 46 24.8 19.0 V 703 – Catalina Sky Survey MPS 93410
2003 12 11.27017 03 24 33.98 +06 46 28.4 19.4 V 703 – Catalina Sky Survey MPS 93410
2003 12 11.28626 03 24 33.31 +06 46 27.4 18.9 V 703 – Catalina Sky Survey MPS 93410
2003 12 22.26227 03 19 23.30 +07 16 47.3 19.5 V 691 – Steward Observatory, Kitt Peak-Spacewatch MPS 94722
2003 12 22.29495 03 19 22.64 +07 16 54.6 19.5 V 691 – Steward Observatory, Kitt Peak-Spacewatch MPS 94722
2003 12 22.32306 03 19 22.09 +07 17 01.0 19.5 V 691 – Steward Observatory, Kitt Peak-Spacewatch MPS 94722
2005 04 04.33389 13 27 21.27 +00 17 53.5 19.5 R 703 – Catalina Sky Survey MPS 130736
2005 04 04.34199 13 27 20.98 +00 17 54.9 19.5 R 703 – Catalina Sky Survey MPS 130736
2005 04 04.35007 13 27 20.48 +00 18 00.5 19.3 R 703 – Catalina Sky Survey MPS 130736
2005 04 04.35812 13 27 19.98 +00 18 02.9 19.2 R 703 – Catalina Sky Survey MPS 130736
2005 05 08.17682 13 00 40.30 +03 07 52.9 20.4 V 691 – Steward Observatory, Kitt Peak-Spacewatch MPS 133977
2005 05 08.19241 13 00 39.77 +03 07 54.5 20.4 V 691 – Steward Observatory, Kitt Peak-Spacewatch MPS 133977
2005 05 08.20798 13 00 39.24 +03 07 56.5 20.4 V 691 – Steward Observatory, Kitt Peak-Spacewatch MPS 133977
2006 06 19.42982 20 29 29.94 -13 45 18.5 21.1 V 691 – Steward Observatory, Kitt Peak-Spacewatch MPS 173896
2006 06 19.44724 20 29 29.48 -13 45 20.5 20.9 V 691 – Steward Observatory, Kitt Peak-Spacewatch MPS 173896
2006 06 19.46467 20 29 29.02 -13 45 22.2 21.0 V 691 – Steward Observatory, Kitt Peak-Spacewatch MPS 173896
2006 07 23.27049 20 03 59.76 -16 02 44.3 19.8 V G96 – Mt. Lemmon Survey MPS 175116
2006 07 23.27483 20 03 59.47 -16 02 45.6 19.9 V G96 – Mt. Lemmon Survey MPS 175116
2006 07 23.27918 20 03 59.22 -16 02 47.0 19.8 V G96 – Mt. Lemmon Survey MPS 175116
2006 07 23.28367 20 03 58.93 -16 02 48.9 19.2 V G96 – Mt. Lemmon Survey MPS 175116
2009 03 26.45376 15 27 40.14 -09 33 52.4 20.2 V G96 – Mt. Lemmon Survey MPS 282252
2009 03 26.46295 15 27 39.99 -09 33 50.1 20.2 V G96 – Mt. Lemmon Survey MPS 282252
2009 03 26.47208 15 27 39.85 -09 33 47.9 20.1 V G96 – Mt. Lemmon Survey MPS 282252
2009 03 26.48123 15 27 39.70 -09 33 45.4 20.5 V G96 – Mt. Lemmon Survey MPS 282252
2009 04 19.38112 15 15 06.40 -07 34 56.8 20.1 V 703 – Catalina Sky Survey MPS 285417
2009 04 19.38726 15 15 06.15 -07 34 53.7 20.2 V 703 – Catalina Sky Survey MPS 285417
2009 04 19.39336 15 15 05.83 -07 34 51.6 19.7 V 703 – Catalina Sky Survey MPS 285417
2009 04 19.39931 15 15 05.61 -07 34 49.3 20.1 V 703 – Catalina Sky Survey MPS 285417
2009 04 21.43115 15 13 27.87 -07 24 06.6 19.9 V G96 – Mt. Lemmon Survey MPS 285417
2009 04 21.43720 15 13 27.58 -07 24 04.7 19.7 V G96 – Mt. Lemmon Survey MPS 285417
2009 04 21.44317 15 13 27.26 -07 24 03.1 19.8 V G96 – Mt. Lemmon Survey MPS 285417
2009 04 21.44923 15 13 26.94 -07 24 01.1 19.8 V G96 – Mt. Lemmon Survey MPS 285417
2009 04 27.36259 15 08 22.99 -06 53 25.4 20.0 V 703 – Catalina Sky Survey MPS 286278
2009 04 27.36944 15 08 22.56 -06 53 24.5 19.4 V 703 – Catalina Sky Survey MPS 286278
2009 04 27.37620 15 08 22.20 -06 53 21.7 19.7 V 703 – Catalina Sky Survey MPS 286278
2009 05 04.41929 15 01 55.16 -06 19 22.6 19.8 V G96 – Mt. Lemmon Survey MPS 286658
2009 05 04.42209 15 01 55.02 -06 19 21.8 19.9 V G96 – Mt. Lemmon Survey MPS 286658
2009 05 04.42496 15 01 54.84 -06 19 21.1 19.8 V G96 – Mt. Lemmon Survey MPS 286658
2009 05 04.42784 15 01 54.69 -06 19 20.1 19.8 V G96 – Mt. Lemmon Survey MPS 286658
2010 08 07.13046 22 36 37.67 -09 51 47.2 20.0 V J75 – OAM Observatory, La Sagra MPS 344618
2010 08 07.14339 22 36 37.09 -09 51 53.6 19.8 V J75 – OAM Observatory, La Sagra MPS 344618
2010 08 07.15632 22 36 36.58 -09 51 59.2 19.7 V J75 – OAM Observatory, La Sagra MPS 344618
2010 08 18.495199 22 28 27.546 -11 21 40.12 19.47 r F51 – Pan-STARRS 1, Haleakala MPS 364755
2010 08 18.506959 22 28 26.948 -11 21 46.02 19.53 r F51 – Pan-STARRS 1, Haleakala MPS 364755
2010 08 18.521329 22 28 26.223 -11 21 53.19 20.05 g F51 – Pan-STARRS 1, Haleakala MPS 364755
2010 08 18.532518 22 28 25.652 -11 21 58.82 20.06 g F51 – Pan-STARRS 1, Haleakala MPS 364755
2010 09 05.23715 22 13 19.84 -13 50 19.2 19.4 V G96 – Mt. Lemmon Survey MPS 347690
